Year,Month,Day,Hour,Minute,Value (Times are PST for windspeed in km/hr)
2015,08,30,00,00,9.80
2015,08,30,00,01,10.70
2015,08,30,00,02,11.60
2015,08,30,00,03,11.80
2015,08,30,00,04,11.30
2015,08,30,00,05,12.40
2015,08,30,00,06,12.20
2015,08,30,00,07,11.80
2015,08,30,00,08,11.30
2015,08,30,00,09,10.60
2015,08,30,00,10,10.50
2015,08,30,00,11,9.00
2015,08,30,00,12,7.50
2015,08,30,00,13,6.60
2015,08,30,00,14,5.60
2015,08,30,00,15,4.50
2015,08,30,00,16,3.90
2015,08,30,00,17,1.70
2015,08,30,00,18,0.00
2015,08,30,00,19,0.00
2015,08,30,00,20,0.00
2015,08,30,00,21,0.00
2015,08,30,00,22,0.00
2015,08,30,00,23,0.00
2015,08,30,00,24,2.60
2015,08,30,00,25,4.60
2015,08,30,00,26,5.40
2015,08,30,00,27,7.80
2015,08,30,00,28,8.10
2015,08,30,00,29,7.80
2015,08,30,00,30,8.50
2015,08,30,00,31,11.50
2015,08,30,00,32,11.60
2015,08,30,00,33,11.60
2015,08,30,00,34,10.80
2015,08,30,00,35,9.50
2015,08,30,00,36,7.30
2015,08,30,00,37,7.60
2015,08,30,00,38,6.50
2015,08,30,00,39,7.00
2015,08,30,00,40,7.20
2015,08,30,00,41,8.70
2015,08,30,00,42,7.30
2015,08,30,00,43,6.70
2015,08,30,00,44,6.60
2015,08,30,00,45,6.40
2015,08,30,00,46,7.70
2015,08,30,00,47,8.10
2015,08,30,00,48,8.10
2015,08,30,00,49,9.30
2015,08,30,00,50,9.80
2015,08,30,00,51,9.60
2015,08,30,00,52,9.70
2015,08,30,00,53,8.80
2015,08,30,00,54,8.40
2015,08,30,00,55,8.00
2015,08,30,00,56,8.10
2015,08,30,00,57,7.40
2015,08,30,00,58,7.10
2015,08,30,00,59,7.70
2015,08,30,01,00,6.80
2015,08,30,01,01,5.50
2015,08,30,01,02,4.40
2015,08,30,01,03,3.90
2015,08,30,01,04,3.70
2015,08,30,01,05,3.40
2015,08,30,01,06,3.90
2015,08,30,01,07,4.30
2015,08,30,01,08,4.10
2015,08,30,01,09,3.70
2015,08,30,01,10,3.70
2015,08,30,01,11,2.20
2015,08,30,01,12,0.80
2015,08,30,01,13,0.20
2015,08,30,01,14,0.00
2015,08,30,01,15,0.00
2015,08,30,01,16,0.00
2015,08,30,01,17,0.00
2015,08,30,01,18,0.00
2015,08,30,01,19,0.00
2015,08,30,01,20,0.00
2015,08,30,01,21,0.00
2015,08,30,01,22,0.00
2015,08,30,01,23,0.00
2015,08,30,01,24,0.00
2015,08,30,01,25,0.00
2015,08,30,01,26,2.30
2015,08,30,01,27,4.20
2015,08,30,01,28,3.70
2015,08,30,01,29,5.60
2015,08,30,01,30,5.60
2015,08,30,01,31,5.20
2015,08,30,01,32,4.60
2015,08,30,01,33,4.70
2015,08,30,01,34,5.40
2015,08,30,01,35,5.00
2015,08,30,01,36,5.20
2015,08,30,01,37,6.00
2015,08,30,01,38,6.10
2015,08,30,01,39,6.10
2015,08,30,01,40,6.40
2015,08,30,01,41,6.40
2015,08,30,01,42,6.20
2015,08,30,01,43,6.10
2015,08,30,01,44,5.90
2015,08,30,01,45,6.00
2015,08,30,01,46,6.60
2015,08,30,01,47,7.10
2015,08,30,01,48,6.70
2015,08,30,01,49,6.40
2015,08,30,01,50,6.50
2015,08,30,01,51,6.80
2015,08,30,01,52,7.90
2015,08,30,01,53,7.70
2015,08,30,01,54,6.80
2015,08,30,01,55,7.60
2015,08,30,01,56,7.40
2015,08,30,01,57,7.50
2015,08,30,01,58,6.40
2015,08,30,01,59,6.50
2015,08,30,02,00,6.70
2015,08,30,02,01,5.90
2015,08,30,02,02,6.00
2015,08,30,02,03,5.60
2015,08,30,02,04,6.80
2015,08,30,02,05,8.10
2015,08,30,02,06,8.50
2015,08,30,02,07,8.60
2015,08,30,02,08,7.50
2015,08,30,02,09,8.10
2015,08,30,02,10,8.30
2015,08,30,02,11,7.60
2015,08,30,02,12,7.20
2015,08,30,02,13,8.20
2015,08,30,02,14,7.70
2015,08,30,02,15,7.40
2015,08,30,02,16,8.10
2015,08,30,02,17,8.10
2015,08,30,02,18,8.40
2015,08,30,02,19,8.50
2015,08,30,02,20,8.20
2015,08,30,02,21,7.70
2015,08,30,02,22,7.70
2015,08,30,02,23,7.60
2015,08,30,02,24,6.10
2015,08,30,02,25,5.10
2015,08,30,02,26,4.70
2015,08,30,02,27,4.60
2015,08,30,02,28,4.40
2015,08,30,02,29,4.70
2015,08,30,02,30,4.80
2015,08,30,02,31,5.00
2015,08,30,02,32,5.80
2015,08,30,02,33,7.20
2015,08,30,02,34,8.90
2015,08,30,02,35,7.70
2015,08,30,02,36,8.00
2015,08,30,02,37,7.10
2015,08,30,02,38,7.40
2015,08,30,02,39,8.90
2015,08,30,02,40,12.20
2015,08,30,02,41,9.70
2015,08,30,02,42,7.10
2015,08,30,02,43,9.30
2015,08,30,02,44,10.60
2015,08,30,02,45,12.30
2015,08,30,02,46,11.30
2015,08,30,02,47,8.10
2015,08,30,02,48,5.80
2015,08,30,02,49,3.30
2015,08,30,02,50,4.20
2015,08,30,02,51,2.20
2015,08,30,02,52,5.70
2015,08,30,02,53,8.90
2015,08,30,02,54,10.40
2015,08,30,02,55,9.90
2015,08,30,02,56,9.00
2015,08,30,02,57,11.70
2015,08,30,02,58,12.00
2015,08,30,02,59,10.60
2015,08,30,03,00,10.90
2015,08,30,03,01,11.20
2015,08,30,03,02,11.70
2015,08,30,03,03,11.10
2015,08,30,03,04,10.40
2015,08,30,03,05,10.90
2015,08,30,03,06,9.90
2015,08,30,03,07,10.60
2015,08,30,03,08,11.30
2015,08,30,03,09,12.30
2015,08,30,03,10,12.40
2015,08,30,03,11,12.50
2015,08,30,03,12,11.30
2015,08,30,03,13,10.50
2015,08,30,03,14,10.60
2015,08,30,03,15,9.60
2015,08,30,03,16,9.50
2015,08,30,03,17,10.60
2015,08,30,03,18,11.90
2015,08,30,03,19,13.80
2015,08,30,03,20,14.20
2015,08,30,03,21,13.50
2015,08,30,03,22,12.10
2015,08,30,03,23,10.80
2015,08,30,03,24,8.90
2015,08,30,03,25,8.30
2015,08,30,03,26,8.60
2015,08,30,03,27,11.60
2015,08,30,03,28,13.60
2015,08,30,03,29,14.00
2015,08,30,03,30,14.20
2015,08,30,03,31,15.50
2015,08,30,03,32,17.50
2015,08,30,03,33,16.30
2015,08,30,03,34,13.00
2015,08,30,03,35,12.80
2015,08,30,03,36,13.00
2015,08,30,03,37,14.30
2015,08,30,03,38,14.00
2015,08,30,03,39,13.90
2015,08,30,03,40,12.70
2015,08,30,03,41,15.40
2015,08,30,03,42,15.90
2015,08,30,03,43,15.80
2015,08,30,03,44,17.20
2015,08,30,03,45,17.20
2015,08,30,03,46,17.50
2015,08,30,03,47,16.20
2015,08,30,03,48,15.90
2015,08,30,03,49,15.40
2015,08,30,03,50,12.00
2015,08,30,03,51,12.20
2015,08,30,03,52,11.00
2015,08,30,03,53,12.90
2015,08,30,03,54,12.00
2015,08,30,03,55,11.50
2015,08,30,03,56,11.30
2015,08,30,03,57,12.40
2015,08,30,03,58,12.70
2015,08,30,03,59,11.20
2015,08,30,04,00,9.80
2015,08,30,04,01,9.60
2015,08,30,04,02,11.70
2015,08,30,04,03,10.60
2015,08,30,04,04,9.50
2015,08,30,04,05,8.40
2015,08,30,04,06,8.50
2015,08,30,04,07,8.70
2015,08,30,04,08,9.40
2015,08,30,04,09,7.60
2015,08,30,04,10,10.30
2015,08,30,04,11,6.80
2015,08,30,04,12,6.10
2015,08,30,04,13,6.80
2015,08,30,04,14,6.40
2015,08,30,04,15,6.40
2015,08,30,04,16,6.30
2015,08,30,04,17,7.70
2015,08,30,04,18,7.40
2015,08,30,04,19,5.10
2015,08,30,04,20,5.60
2015,08,30,04,21,7.10
2015,08,30,04,22,5.60
2015,08,30,04,23,5.70
2015,08,30,04,24,5.40
2015,08,30,04,25,5.80
2015,08,30,04,26,5.60
2015,08,30,04,27,5.10
2015,08,30,04,28,4.80
2015,08,30,04,29,4.60
2015,08,30,04,30,4.40
2015,08,30,04,31,3.70
2015,08,30,04,32,3.30
2015,08,30,04,33,3.40
2015,08,30,04,34,2.90
2015,08,30,04,35,1.20
2015,08,30,04,36,0.00
2015,08,30,04,37,0.00
2015,08,30,04,38,0.00
2015,08,30,04,39,0.00
2015,08,30,04,40,0.00
2015,08,30,04,41,0.00
2015,08,30,04,42,0.00
2015,08,30,04,43,0.00
2015,08,30,04,44,0.00
2015,08,30,04,45,1.20
2015,08,30,04,46,4.10
2015,08,30,04,47,3.40
2015,08,30,04,48,3.20
2015,08,30,04,49,3.20
2015,08,30,04,50,6.00
2015,08,30,04,51,9.20
2015,08,30,04,52,9.80
2015,08,30,04,53,10.60
2015,08,30,04,54,12.30
2015,08,30,04,55,11.40
2015,08,30,04,56,10.70
2015,08,30,04,57,9.80
2015,08,30,04,58,8.70
2015,08,30,04,59,8.60
2015,08,30,05,00,8.60
2015,08,30,05,01,7.80
2015,08,30,05,02,6.70
2015,08,30,05,03,8.30
2015,08,30,05,04,7.90
2015,08,30,05,05,9.90
2015,08,30,05,06,8.80
2015,08,30,05,07,8.00
2015,08,30,05,08,7.30
2015,08,30,05,09,7.00
2015,08,30,05,10,6.40
2015,08,30,05,11,5.10
2015,08,30,05,12,1.80
2015,08,30,05,13,0.00
2015,08,30,05,14,0.00
2015,08,30,05,15,0.00
2015,08,30,05,16,0.20
2015,08,30,05,17,1.50
2015,08,30,05,18,0.10
2015,08,30,05,19,0.00
2015,08,30,05,20,0.00
2015,08,30,05,21,0.00
2015,08,30,05,22,0.00
2015,08,30,05,23,0.00
2015,08,30,05,24,0.00
2015,08,30,05,25,0.00
2015,08,30,05,26,0.00
2015,08,30,05,27,0.00
2015,08,30,05,28,0.00
2015,08,30,05,29,0.00
2015,08,30,05,30,0.00
2015,08,30,05,31,0.00
2015,08,30,05,32,1.00
2015,08,30,05,33,0.20
2015,08,30,05,34,0.00
2015,08,30,05,35,3.70
2015,08,30,05,36,4.40
2015,08,30,05,37,2.90
2015,08,30,05,38,4.70
2015,08,30,05,39,5.10
2015,08,30,05,40,4.00
2015,08,30,05,41,6.30
2015,08,30,05,42,6.30
2015,08,30,05,43,5.40
2015,08,30,05,44,4.70
2015,08,30,05,45,2.60
2015,08,30,05,46,5.00
2015,08,30,05,47,5.80
2015,08,30,05,48,5.80
2015,08,30,05,49,6.00
2015,08,30,05,50,7.40
2015,08,30,05,51,7.70
2015,08,30,05,52,6.90
2015,08,30,05,53,7.10
2015,08,30,05,54,7.70
2015,08,30,05,55,7.70
2015,08,30,05,56,7.30
2015,08,30,05,57,7.90
2015,08,30,05,58,7.30
2015,08,30,05,59,6.30
2015,08,30,06,00,6.40
2015,08,30,06,01,7.00
2015,08,30,06,02,6.70
2015,08,30,06,03,6.10
2015,08,30,06,04,5.40
2015,08,30,06,05,5.40
2015,08,30,06,06,4.10
2015,08,30,06,07,3.30
2015,08,30,06,08,3.20
2015,08,30,06,09,2.40
2015,08,30,06,10,0.00
2015,08,30,06,11,0.00
2015,08,30,06,12,0.80
2015,08,30,06,13,5.10
2015,08,30,06,14,6.20
2015,08,30,06,15,6.30
2015,08,30,06,16,6.40
2015,08,30,06,17,6.00
2015,08,30,06,18,4.70
2015,08,30,06,19,4.70
2015,08,30,06,20,4.80
2015,08,30,06,21,5.00
2015,08,30,06,22,4.40
2015,08,30,06,23,2.60
2015,08,30,06,24,2.60
2015,08,30,06,25,2.50
2015,08,30,06,26,0.80
2015,08,30,06,27,0.00
2015,08,30,06,28,0.00
2015,08,30,06,29,0.00
2015,08,30,06,30,0.20
2015,08,30,06,31,2.90
2015,08,30,06,32,4.30
2015,08,30,06,33,5.00
2015,08,30,06,34,5.40
2015,08,30,06,35,4.00
2015,08,30,06,36,2.70
2015,08,30,06,37,1.60
2015,08,30,06,38,1.60
2015,08,30,06,39,0.80
2015,08,30,06,40,0.00
2015,08,30,06,41,0.00
2015,08,30,06,42,0.00
2015,08,30,06,43,0.00
2015,08,30,06,44,0.00
2015,08,30,06,45,0.00
2015,08,30,06,46,0.10
2015,08,30,06,47,0.00
2015,08,30,06,48,0.00
2015,08,30,06,49,0.00
2015,08,30,06,50,0.00
2015,08,30,06,51,0.00
2015,08,30,06,52,0.00
2015,08,30,06,53,0.00
2015,08,30,06,54,0.00
2015,08,30,06,55,0.00
2015,08,30,06,56,0.00
2015,08,30,06,57,0.00
2015,08,30,06,58,0.00
2015,08,30,06,59,0.00
2015,08,30,07,00,0.00
2015,08,30,07,01,0.00
2015,08,30,07,02,0.00
2015,08,30,07,03,0.00
2015,08,30,07,04,0.00
2015,08,30,07,05,0.00
2015,08,30,07,06,0.00
2015,08,30,07,07,0.00
2015,08,30,07,08,0.00
2015,08,30,07,09,0.00
2015,08,30,07,10,0.00
2015,08,30,07,11,0.00
2015,08,30,07,12,0.00
2015,08,30,07,13,0.00
2015,08,30,07,14,1.40
2015,08,30,07,15,4.00
2015,08,30,07,16,3.10
2015,08,30,07,17,3.00
2015,08,30,07,18,1.80
2015,08,30,07,19,2.90
2015,08,30,07,20,2.80
2015,08,30,07,21,1.50
2015,08,30,07,22,0.00
2015,08,30,07,23,0.10
2015,08,30,07,24,1.40
2015,08,30,07,25,0.00
2015,08,30,07,26,0.10
2015,08,30,07,27,0.10
2015,08,30,07,28,0.00
2015,08,30,07,29,2.60
2015,08,30,07,30,2.60
2015,08,30,07,31,2.80
2015,08,30,07,32,4.80
2015,08,30,07,33,4.50
2015,08,30,07,34,0.00
2015,08,30,07,35,0.00
2015,08,30,07,36,0.00
2015,08,30,07,37,0.00
2015,08,30,07,38,0.30
2015,08,30,07,39,0.00
2015,08,30,07,40,0.00
2015,08,30,07,41,0.00
2015,08,30,07,42,0.10
2015,08,30,07,43,0.80
2015,08,30,07,44,3.80
2015,08,30,07,45,4.10
2015,08,30,07,46,4.10
2015,08,30,07,47,4.00
2015,08,30,07,48,4.30
2015,08,30,07,49,3.70
2015,08,30,07,50,3.90
2015,08,30,07,51,3.40
2015,08,30,07,52,2.40
2015,08,30,07,53,1.60
2015,08,30,07,54,0.00
2015,08,30,07,55,0.00
2015,08,30,07,56,0.00
2015,08,30,07,57,2.40
2015,08,30,07,58,2.30
2015,08,30,07,59,0.00
2015,08,30,08,00,0.00
2015,08,30,08,01,0.00
2015,08,30,08,02,0.00
2015,08,30,08,03,0.00
2015,08,30,08,04,0.00
2015,08,30,08,05,0.00
2015,08,30,08,06,0.00
2015,08,30,08,07,0.00
2015,08,30,08,08,0.00
2015,08,30,08,09,0.00
2015,08,30,08,10,0.00
2015,08,30,08,11,0.00
2015,08,30,08,12,0.00
2015,08,30,08,13,0.00
2015,08,30,08,14,0.00
2015,08,30,08,15,0.00
2015,08,30,08,16,0.00
2015,08,30,08,17,0.00
2015,08,30,08,18,0.00
2015,08,30,08,19,0.00
2015,08,30,08,20,0.00
2015,08,30,08,21,0.00
2015,08,30,08,22,0.00
2015,08,30,08,23,0.00
2015,08,30,08,24,0.00
2015,08,30,08,25,0.00
2015,08,30,08,26,0.00
2015,08,30,08,27,0.00
2015,08,30,08,28,1.60
2015,08,30,08,29,1.80
2015,08,30,08,30,0.30
2015,08,30,08,31,0.00
2015,08,30,08,32,0.00
2015,08,30,08,33,0.00
2015,08,30,08,34,0.00
2015,08,30,08,35,0.00
2015,08,30,08,36,0.00
2015,08,30,08,37,0.00
2015,08,30,08,38,0.00
2015,08,30,08,39,0.00
2015,08,30,08,40,0.00
2015,08,30,08,41,0.00
2015,08,30,08,42,0.00
2015,08,30,08,43,1.70
2015,08,30,08,44,3.50
2015,08,30,08,45,4.30
2015,08,30,08,46,0.00
2015,08,30,08,47,0.00
2015,08,30,08,48,2.30
2015,08,30,08,49,0.90
2015,08,30,08,50,2.00
2015,08,30,08,51,0.00
2015,08,30,08,52,0.00
2015,08,30,08,53,0.00
2015,08,30,08,54,0.00
2015,08,30,08,55,0.00
2015,08,30,08,56,0.00
2015,08,30,08,57,0.00
2015,08,30,08,58,0.00
2015,08,30,08,59,0.00
2015,08,30,09,00,0.00
2015,08,30,09,01,1.90
2015,08,30,09,02,1.90
2015,08,30,09,03,0.10
2015,08,30,09,04,0.00
2015,08,30,09,05,0.00
2015,08,30,09,06,0.60
2015,08,30,09,07,0.00
2015,08,30,09,08,0.00
2015,08,30,09,09,0.30
2015,08,30,09,10,4.30
2015,08,30,09,11,4.50
2015,08,30,09,12,4.10
2015,08,30,09,13,2.70
2015,08,30,09,14,0.40
2015,08,30,09,15,0.00
2015,08,30,09,16,1.20
2015,08,30,09,17,1.50
2015,08,30,09,18,0.00
2015,08,30,09,19,0.00
2015,08,30,09,20,0.00
2015,08,30,09,21,3.20
2015,08,30,09,22,4.30
2015,08,30,09,23,3.20
2015,08,30,09,24,3.40
2015,08,30,09,25,4.20
2015,08,30,09,26,3.70
2015,08,30,09,27,2.20
2015,08,30,09,28,0.00
2015,08,30,09,29,0.00
2015,08,30,09,30,0.00
2015,08,30,09,31,0.00
2015,08,30,09,32,0.00
2015,08,30,09,33,0.00
2015,08,30,09,34,0.00
2015,08,30,09,35,0.00
2015,08,30,09,36,0.00
2015,08,30,09,37,0.00
2015,08,30,09,38,0.00
2015,08,30,10,11,0.00
2015,08,30,10,12,0.00
2015,08,30,10,13,0.30
2015,08,30,10,14,2.10
2015,08,30,10,15,1.40
2015,08,30,10,16,0.00
2015,08,30,10,17,2.40
2015,08,30,10,18,2.60
2015,08,30,10,19,2.40
2015,08,30,10,20,1.50
2015,08,30,10,21,0.00
2015,08,30,10,22,0.00
2015,08,30,10,23,0.00
2015,08,30,10,24,0.00
2015,08,30,10,25,0.00
2015,08,30,10,26,0.00
2015,08,30,10,27,0.00
2015,08,30,10,28,0.00
2015,08,30,10,29,0.00
2015,08,30,10,30,0.00
2015,08,30,10,31,0.00
2015,08,30,10,32,0.00
2015,08,30,10,33,0.00
2015,08,30,10,34,0.00
2015,08,30,10,35,0.00
2015,08,30,10,36,0.00
2015,08,30,10,37,0.00
2015,08,30,10,38,0.00
2015,08,30,10,39,0.00
2015,08,30,10,40,0.00
2015,08,30,10,41,0.00
2015,08,30,10,42,0.00
2015,08,30,10,43,0.00
2015,08,30,10,44,0.00
2015,08,30,10,45,0.00
2015,08,30,10,46,0.00
2015,08,30,10,47,0.00
2015,08,30,10,48,0.00
2015,08,30,10,49,0.00
2015,08,30,10,50,0.00
2015,08,30,10,51,0.00
2015,08,30,10,52,0.00
2015,08,30,10,53,0.00
2015,08,30,10,54,0.00
2015,08,30,10,55,0.00
2015,08,30,10,56,0.00
2015,08,30,10,57,0.00
2015,08,30,10,58,0.00
2015,08,30,10,59,4.10
2015,08,30,11,00,8.20
2015,08,30,11,01,9.00
2015,08,30,11,02,9.50
2015,08,30,11,03,9.60
2015,08,30,11,04,10.00
2015,08,30,11,05,10.50
2015,08,30,11,06,11.30
2015,08,30,11,07,11.60
2015,08,30,11,08,11.80
2015,08,30,11,09,13.00
2015,08,30,11,10,12.70
2015,08,30,11,11,12.00
2015,08,30,11,12,12.30
2015,08,30,11,13,11.90
2015,08,30,11,14,12.20
2015,08,30,11,15,12.70
2015,08,30,11,16,13.00
2015,08,30,11,17,14.20
2015,08,30,11,18,14.30
2015,08,30,11,19,13.50
2015,08,30,11,20,13.40
2015,08,30,11,21,12.90
2015,08,30,11,22,12.20
2015,08,30,11,23,12.20
2015,08,30,11,24,12.00
2015,08,30,11,25,13.10
2015,08,30,11,26,13.00
2015,08,30,11,27,13.10
2015,08,30,11,28,13.50
2015,08,30,11,29,14.20
2015,08,30,11,30,14.10
2015,08,30,11,31,14.00
2015,08,30,11,32,13.80
2015,08,30,11,33,14.10
2015,08,30,11,34,13.70
2015,08,30,11,35,13.50
2015,08,30,11,36,13.60
2015,08,30,11,37,13.50
2015,08,30,11,38,14.10
2015,08,30,11,39,13.20
2015,08,30,11,40,12.70
2015,08,30,11,41,12.70
2015,08,30,11,42,12.60
2015,08,30,11,43,12.70
2015,08,30,11,44,11.80
2015,08,30,11,45,11.50
2015,08,30,11,46,12.00
2015,08,30,11,47,11.80
2015,08,30,11,48,13.20
2015,08,30,11,49,14.10
2015,08,30,11,50,14.50
2015,08,30,11,51,15.20
2015,08,30,11,52,15.20
2015,08,30,11,53,15.10
2015,08,30,11,54,15.80
2015,08,30,11,55,15.90
2015,08,30,11,56,16.70
2015,08,30,11,57,16.80
2015,08,30,11,58,16.70
2015,08,30,11,59,16.70
2015,08,30,12,00,16.20
2015,08,30,12,01,15.40
2015,08,30,12,02,15.60
2015,08,30,12,03,16.30
2015,08,30,12,04,16.60
2015,08,30,12,05,17.00
2015,08,30,12,06,17.10
2015,08,30,12,07,16.80
2015,08,30,12,08,17.20
2015,08,30,12,09,17.60
2015,08,30,12,10,17.00
2015,08,30,12,11,16.80
2015,08,30,12,12,17.50
2015,08,30,12,13,16.80
2015,08,30,12,14,16.20
2015,08,30,12,15,16.60
2015,08,30,12,16,16.90
2015,08,30,12,17,18.00
2015,08,30,12,18,17.40
2015,08,30,12,19,16.20
2015,08,30,12,20,16.40
2015,08,30,12,21,16.00
2015,08,30,12,22,15.10
2015,08,30,12,23,14.30
2015,08,30,12,24,13.40
2015,08,30,12,25,13.00
2015,08,30,12,26,13.20
2015,08,30,12,27,14.40
2015,08,30,12,28,13.40
2015,08,30,12,29,13.70
2015,08,30,12,30,14.20
2015,08,30,12,31,15.00
2015,08,30,12,32,15.80
2015,08,30,12,33,15.10
2015,08,30,12,34,14.40
2015,08,30,12,35,14.30
2015,08,30,12,36,14.20
2015,08,30,12,37,13.20
2015,08,30,12,38,15.10
2015,08,30,12,39,16.00
2015,08,30,12,40,16.30
2015,08,30,12,41,15.10
2015,08,30,12,42,15.00
2015,08,30,12,43,16.00
2015,08,30,12,44,16.10
2015,08,30,12,45,16.10
2015,08,30,12,46,16.10
2015,08,30,12,47,16.10
2015,08,30,12,48,16.10
2015,08,30,12,49,14.00
2015,08,30,12,50,15.20
2015,08,30,12,51,15.40
2015,08,30,12,52,15.10
2015,08,30,12,53,15.40
2015,08,30,12,54,15.30
2015,08,30,12,55,15.80
2015,08,30,12,56,15.70
2015,08,30,12,57,16.90
2015,08,30,12,58,16.80
2015,08,30,12,59,17.30
2015,08,30,13,00,16.90
2015,08,30,13,01,16.70
2015,08,30,13,02,16.40
2015,08,30,13,03,15.80
2015,08,30,13,04,15.30
2015,08,30,13,05,15.30
2015,08,30,13,06,15.20
2015,08,30,13,07,15.40
2015,08,30,13,08,14.30
2015,08,30,13,09,13.90
2015,08,30,13,10,13.40
2015,08,30,13,11,12.70
2015,08,30,13,12,12.70
2015,08,30,13,13,11.90
2015,08,30,13,14,12.90
2015,08,30,13,15,12.30
2015,08,30,13,16,12.50
2015,08,30,13,17,14.00
2015,08,30,13,18,14.20
2015,08,30,13,19,14.00
2015,08,30,13,20,14.20
2015,08,30,13,21,14.10
2015,08,30,13,22,14.70
2015,08,30,13,23,15.10
2015,08,30,13,24,14.40
2015,08,30,13,25,14.20
2015,08,30,13,26,14.60
2015,08,30,13,27,14.40
2015,08,30,13,28,14.60
2015,08,30,13,29,14.60
2015,08,30,13,30,14.50
2015,08,30,13,31,14.60
2015,08,30,13,32,15.00
2015,08,30,13,33,16.30
2015,08,30,13,34,16.10
2015,08,30,13,35,16.30
2015,08,30,13,36,16.40
2015,08,30,13,37,15.50
2015,08,30,13,38,15.70
2015,08,30,13,39,14.90
2015,08,30,13,40,14.50
2015,08,30,13,41,14.60
2015,08,30,13,42,14.30
2015,08,30,13,43,14.30
2015,08,30,13,44,13.60
2015,08,30,13,45,15.10
2015,08,30,13,46,13.90
2015,08,30,13,47,12.90
2015,08,30,13,48,13.40
2015,08,30,13,49,13.80
2015,08,30,13,50,13.70
2015,08,30,13,51,15.50
2015,08,30,13,52,14.60
2015,08,30,13,53,14.00
2015,08,30,13,54,14.60
2015,08,30,13,55,13.50
2015,08,30,13,56,13.00
2015,08,30,13,57,13.40
2015,08,30,13,58,13.80
2015,08,30,13,59,14.60
2015,08,30,14,00,14.80
2015,08,30,14,01,15.00
2015,08,30,14,02,15.40
2015,08,30,14,03,14.80
2015,08,30,14,04,14.80
2015,08,30,14,05,15.10
2015,08,30,14,06,14.90
2015,08,30,14,07,14.00
2015,08,30,14,08,14.70
2015,08,30,14,09,13.60
2015,08,30,14,10,14.30
2015,08,30,14,11,14.20
2015,08,30,14,12,14.30
2015,08,30,14,13,14.60
2015,08,30,14,14,15.80
2015,08,30,14,15,15.60
2015,08,30,14,16,16.40
2015,08,30,14,17,15.60
2015,08,30,14,18,14.60
2015,08,30,14,19,16.60
2015,08,30,14,20,17.40
2015,08,30,14,21,16.90
2015,08,30,14,22,17.30
2015,08,30,14,23,17.80
2015,08,30,14,24,18.20
2015,08,30,14,25,17.00
2015,08,30,14,26,15.60
2015,08,30,14,27,16.90
2015,08,30,14,28,18.10
2015,08,30,14,29,18.20
2015,08,30,14,30,18.20
2015,08,30,14,31,19.00
2015,08,30,14,32,19.20
2015,08,30,14,33,19.40
2015,08,30,14,34,18.60
2015,08,30,14,35,18.60
2015,08,30,14,36,18.40
2015,08,30,14,37,17.80
2015,08,30,14,38,17.10
2015,08,30,14,39,17.00
2015,08,30,14,40,17.10
2015,08,30,14,41,18.10
2015,08,30,14,42,18.20
2015,08,30,14,43,18.20
2015,08,30,14,44,18.00
2015,08,30,14,45,18.20
2015,08,30,14,46,18.20
2015,08,30,14,47,17.30
2015,08,30,14,48,15.90
2015,08,30,14,49,15.40
2015,08,30,14,50,14.80
2015,08,30,14,51,14.60
2015,08,30,14,52,14.80
2015,08,30,14,53,15.50
2015,08,30,14,54,14.90
2015,08,30,14,55,14.60
2015,08,30,14,56,14.90
2015,08,30,14,57,15.20
2015,08,30,14,58,16.00
2015,08,30,14,59,16.20
2015,08,30,15,00,16.00
2015,08,30,15,01,15.80
2015,08,30,15,02,16.00
2015,08,30,15,03,15.40
2015,08,30,15,04,16.00
2015,08,30,15,05,15.90
2015,08,30,15,06,14.80
2015,08,30,15,07,12.60
2015,08,30,15,08,10.50
2015,08,30,15,09,8.10
2015,08,30,15,10,6.00
2015,08,30,15,11,5.60
2015,08,30,15,12,5.40
2015,08,30,15,13,4.70
2015,08,30,15,14,6.80
2015,08,30,15,15,7.80
2015,08,30,15,16,10.70
2015,08,30,15,17,13.20
2015,08,30,15,18,13.80
2015,08,30,15,19,14.10
2015,08,30,15,20,14.40
2015,08,30,15,21,16.20
2015,08,30,15,22,16.10
2015,08,30,15,23,15.70
2015,08,30,15,24,15.70
2015,08,30,15,25,12.40
2015,08,30,15,26,9.10
2015,08,30,15,27,10.90
2015,08,30,15,28,12.70
2015,08,30,15,29,13.00
2015,08,30,15,30,12.00
2015,08,30,15,31,12.10
2015,08,30,15,32,13.90
2015,08,30,15,33,10.80
2015,08,30,15,34,9.30
2015,08,30,15,35,8.40
2015,08,30,15,36,6.80
2015,08,30,15,37,7.30
2015,08,30,15,38,8.20
2015,08,30,15,39,8.70
2015,08,30,15,40,11.40
2015,08,30,15,41,10.30
2015,08,30,15,42,10.20
2015,08,30,15,43,11.90
2015,08,30,15,44,11.90
2015,08,30,15,45,11.40
2015,08,30,15,46,10.40
2015,08,30,15,47,8.90
2015,08,30,15,48,9.90
2015,08,30,15,49,11.70
2015,08,30,15,50,11.70
2015,08,30,15,51,10.70
2015,08,30,15,52,9.90
2015,08,30,15,53,7.70
2015,08,30,15,54,5.90
2015,08,30,15,55,6.50
2015,08,30,15,56,8.50
2015,08,30,15,57,9.40
2015,08,30,15,58,7.40
2015,08,30,15,59,8.00
2015,08,30,16,00,9.40
2015,08,30,16,01,8.30
2015,08,30,16,02,8.60
2015,08,30,16,03,8.40
2015,08,30,16,04,7.50
2015,08,30,16,05,8.30
2015,08,30,16,06,8.10
2015,08,30,16,07,7.90
2015,08,30,16,08,6.90
2015,08,30,16,09,6.30
2015,08,30,16,10,5.60
2015,08,30,16,11,4.40
2015,08,30,16,12,3.50
2015,08,30,16,13,1.00
2015,08,30,16,14,0.00
2015,08,30,16,15,0.00
2015,08,30,16,16,0.00
2015,08,30,16,17,0.00
2015,08,30,16,18,0.00
2015,08,30,16,19,0.00
2015,08,30,16,20,0.00
2015,08,30,16,21,2.80
2015,08,30,16,22,3.20
2015,08,30,16,23,2.00
2015,08,30,16,24,5.90
2015,08,30,16,25,6.00
2015,08,30,16,26,15.90
2015,08,30,16,27,20.50
2015,08,30,16,28,16.60
2015,08,30,16,29,7.40
2015,08,30,16,30,5.90
2015,08,30,16,31,6.90
2015,08,30,16,32,3.80
2015,08,30,16,33,3.70
2015,08,30,16,34,7.90
2015,08,30,16,35,10.50
2015,08,30,16,36,14.80
2015,08,30,16,37,15.80
2015,08,30,16,38,14.30
2015,08,30,16,39,13.40
2015,08,30,16,40,15.70
2015,08,30,16,41,17.20
2015,08,30,16,42,16.60
2015,08,30,16,43,18.30
2015,08,30,16,44,18.50
2015,08,30,16,45,20.50
2015,08,30,16,46,20.30
2015,08,30,16,47,21.10
2015,08,30,16,48,20.20
2015,08,30,16,49,18.80
2015,08,30,16,50,18.50
2015,08,30,16,51,20.00
2015,08,30,16,52,18.10
2015,08,30,16,53,18.60
2015,08,30,16,54,18.60
2015,08,30,16,55,19.50
2015,08,30,16,56,17.80
2015,08,30,16,57,15.70
2015,08,30,16,58,14.60
2015,08,30,16,59,15.90
2015,08,30,17,00,16.20
2015,08,30,17,01,16.20
2015,08,30,17,02,16.20
2015,08,30,17,03,16.30
2015,08,30,17,04,16.50
2015,08,30,17,05,17.20
2015,08,30,17,06,16.80
2015,08,30,17,07,17.30
2015,08,30,17,08,18.10
2015,08,30,17,09,18.40
2015,08,30,17,10,17.00
2015,08,30,17,11,16.50
2015,08,30,17,12,16.60
2015,08,30,17,13,17.00
2015,08,30,17,14,16.30
2015,08,30,17,15,15.40
2015,08,30,17,16,15.70
2015,08,30,17,17,16.50
2015,08,30,17,18,17.60
2015,08,30,17,19,17.70
2015,08,30,17,20,17.70
2015,08,30,17,21,18.50
2015,08,30,17,22,17.80
2015,08,30,17,23,17.10
2015,08,30,17,24,16.80
2015,08,30,17,25,16.90
2015,08,30,17,26,16.30
2015,08,30,17,27,15.70
2015,08,30,17,28,14.60
2015,08,30,17,29,13.00
2015,08,30,17,30,13.10
2015,08,30,17,31,15.00
2015,08,30,17,32,14.60
2015,08,30,17,33,14.60
2015,08,30,17,34,15.20
2015,08,30,17,35,15.60
2015,08,30,17,36,14.90
2015,08,30,17,37,14.00
2015,08,30,17,38,15.90
2015,08,30,17,39,16.40
2015,08,30,17,40,15.30
2015,08,30,17,41,14.10
2015,08,30,17,42,13.20
2015,08,30,17,43,15.60
2015,08,30,17,44,13.80
2015,08,30,17,45,13.10
2015,08,30,17,46,13.30
2015,08,30,17,47,12.60
2015,08,30,17,48,12.20
2015,08,30,17,49,12.70
2015,08,30,17,50,12.40
2015,08,30,17,51,11.60
2015,08,30,17,52,11.80
2015,08,30,17,53,12.00
2015,08,30,17,54,12.10
2015,08,30,17,55,12.30
2015,08,30,17,56,11.60
2015,08,30,17,57,12.10
2015,08,30,17,58,12.00
2015,08,30,17,59,12.30
2015,08,30,18,00,12.50
2015,08,30,18,01,11.90
2015,08,30,18,02,11.20
2015,08,30,18,03,11.00
2015,08,30,18,04,11.10
2015,08,30,18,05,11.30
2015,08,30,18,06,11.80
2015,08,30,18,07,11.40
2015,08,30,18,08,11.30
2015,08,30,18,09,11.20
2015,08,30,18,10,10.20
2015,08,30,18,11,10.20
2015,08,30,18,12,9.60
2015,08,30,18,13,9.60
2015,08,30,18,14,9.60
2015,08,30,18,15,9.60
2015,08,30,18,16,9.60
2015,08,30,18,17,9.60